Location: Newark
(46.7636°N, 1.8358°W)
Time: 10:48:29
(UTC+00:00)

Vanguard 2 - Visible Passes

Search period start: 22 October 2019 00:00
Search period end: 01 November 2019 00:00
Orbit: 554 x 2937 km, 32.9° (Epoch: 21 October)

Date Brightness Start Highest point End Pass type
(mag) Time Alt. Az. Time Alt. Az. Time Alt. Az.
22 Oct 10.0 19:20:50 10° WSW 19:29:23 40° S 19:34:38 30° SE visible
22 Oct 10.5 21:28:44 10° WSW 21:36:01 34° SW 21:36:01 34° SW visible
23 Oct 10.0 17:32:04 10° SW 17:38:27 29° SSE 17:47:58 10° ESE visible
23 Oct 10.0 19:38:31 10° WSW 19:47:08 40° S 19:51:14 33° SE visible
23 Oct 10.7 21:46:48 10° WSW 21:52:37 27° SW 21:52:37 27° SW visible
24 Oct 9.9 17:49:27 10° SW 17:56:01 32° SSE 18:06:01 10° ESE visible
24 Oct 10.1 19:56:18 10° WSW 20:04:54 38° S 20:07:51 34° SSE visible
24 Oct 11.0 22:05:03 10° WSW 22:09:15 21° SW 22:09:15 21° SW visible
25 Oct 9.9 18:06:58 10° SW 18:13:39 34° S 18:23:08 12° ESE visible
25 Oct 10.2 20:14:11 10° WSW 20:22:41 35° S 20:24:32 34° S visible
25 Oct 11.2 22:23:37 10° WSW 22:25:55 15° WSW 22:25:55 15° WSW visible
26 Oct 9.9 18:24:36 10° WSW 18:31:21 34° S 18:39:52 14° ESE visible
26 Oct 10.4 20:32:11 10° WSW 20:40:29 31° SSW 20:41:15 31° S visible
27 Oct 9.9 18:42:20 10° WSW 18:49:05 33° S 18:56:38 17° SE visible
27 Oct 10.6 20:50:21 10° WSW 20:58:02 26° SSW 20:58:02 26° SSW visible
28 Oct 10.1 19:00:10 10° WSW 19:06:51 31° S 19:13:29 18° SE visible
28 Oct 10.8 21:08:49 10° WSW 21:14:53 21° SSW 21:14:53 21° SSW visible
29 Oct 10.2 19:18:07 10° WSW 19:24:39 27° S 19:30:23 18° SSE visible
29 Oct 11.0 21:27:48 10° WSW 21:31:48 16° SW 21:31:48 16° SW visible
30 Oct 9.8 17:28:45 10° SW 17:33:54 27° S 17:41:25 10° ESE visible
30 Oct 10.4 19:36:16 10° WSW 19:42:27 23° SSW 19:47:24 17° SSE visible
30 Oct 11.3 21:48:16 10° SW 21:48:49 10° SW 21:48:49 10° SW visible
31 Oct 9.9 17:46:33 10° SW 17:51:38 26° S 17:58:59 10° SE visible
31 Oct 10.6 19:54:41 10° WSW 20:00:15 19° SSW 20:04:30 15° S visible
